TimeMDT,TemperatureF,Dew PointF,Humidity,Sea Level PressureIn,VisibilityMPH,Wind Direction,Wind SpeedMPH,Gust SpeedMPH,PrecipitationIn,Events,Conditions,WindDirDegrees,DateUTC
12:15 AM,14.0,8.6,79,29.89,10.0,West,6.9,-,N/A,,Clear,280,2013-03-19 06:15:00
12:35 AM,17.6,10.4,73,29.90,10.0,NW,4.6,-,N/A,,Clear,310,2013-03-19 06:35:00
12:55 AM,19.4,15.8,86,29.91,10.0,WNW,9.2,-,N/A,,Clear,290,2013-03-19 06:55:00
1:35 AM,19.4,15.8,86,29.92,10.0,WNW,5.8,-,N/A,,Clear,290,2013-03-19 07:35:00
1:55 AM,19.4,14.0,80,29.93,10.0,West,8.1,-,N/A,,Clear,280,2013-03-19 07:55:00
2:15 AM,21.2,21.2,100,29.94,10.0,WNW,11.5,-,N/A,,Clear,300,2013-03-19 08:15:00
2:35 AM,23.0,19.4,86,29.94,10.0,NW,16.1,-,N/A,,Clear,320,2013-03-19 08:35:00
2:56 AM,21.2,17.6,86,29.95,10.0,NNW,18.4,-,N/A,,Partly Cloudy,330,2013-03-19 08:56:00
3:15 AM,21.2,15.8,80,29.97,10.0,NW,17.3,-,N/A,,Mostly Cloudy,320,2013-03-19 09:15:00
3:55 AM,17.6,12.2,79,29.98,10.0,NW,23.0,31.1,N/A,,Partly Cloudy,320,2013-03-19 09:55:00
4:16 AM,17.6,10.4,73,30.00,10.0,NW,29.9,36.8,N/A,,Mostly Cloudy,320,2013-03-19 10:16:00
4:55 AM,12.2,8.6,85,30.03,10.0,NW,23.0,-,N/A,,Clear,320,2013-03-19 10:55:00
5:15 AM,12.2,8.6,85,30.04,10.0,NW,21.9,28.8,N/A,,Clear,320,2013-03-19 11:15:00
5:35 AM,12.2,6.8,79,30.06,10.0,NW,21.9,26.5,N/A,,Clear,320,2013-03-19 11:35:00
5:55 AM,10.4,6.8,85,30.08,10.0,NNW,23.0,32.2,N/A,,Clear,330,2013-03-19 11:55:00
6:15 AM,10.4,6.8,85,30.09,10.0,NW,23.0,29.9,N/A,,Clear,310,2013-03-19 12:15:00
6:35 AM,10.4,5.0,79,30.12,10.0,NW,19.6,-,N/A,,Clear,320,2013-03-19 12:35:00
6:55 AM,8.6,3.2,79,30.14,10.0,NW,15.0,19.6,N/A,,Clear,310,2013-03-19 12:55:00
7:15 AM,8.6,3.2,79,30.16,10.0,NW,13.8,-,N/A,,Clear,310,2013-03-19 13:15:00
7:35 AM,8.6,3.2,79,30.16,10.0,NW,11.5,-,N/A,,Clear,310,2013-03-19 13:35:00
8:15 AM,8.6,3.2,79,30.19,10.0,NW,16.1,-,N/A,,Clear,320,2013-03-19 14:15:00
8:35 AM,10.4,5.0,79,30.20,10.0,NNW,11.5,16.1,N/A,,Clear,330,2013-03-19 14:35:00
8:55 AM,10.4,3.2,73,30.20,10.0,NNW,19.6,-,N/A,,Clear,330,2013-03-19 14:55:00
9:15 AM,10.4,5.0,79,30.23,10.0,NNW,16.1,-,N/A,,Clear,340,2013-03-19 15:15:00
9:35 AM,10.4,3.2,73,30.25,10.0,NNW,12.7,-,N/A,,Clear,340,2013-03-19 15:35:00
10:15 AM,12.2,5.0,73,30.27,10.0,North,10.4,-,N/A,,Scattered Clouds,360,2013-03-19 16:15:00
10:35 AM,12.2,6.8,79,30.28,10.0,NW,10.4,-,N/A,,Mostly Cloudy,320,2013-03-19 16:35:00
10:55 AM,12.2,6.8,79,30.29,10.0,NW,10.4,-,N/A,,Partly Cloudy,310,2013-03-19 16:55:00
11:15 AM,14.0,6.8,73,30.30,10.0,NNW,10.4,-,N/A,,Partly Cloudy,330,2013-03-19 17:15:00
11:35 AM,15.8,6.8,68,30.31,10.0,WNW,12.7,18.4,N/A,,Scattered Clouds,300,2013-03-19 17:35:00
11:55 AM,15.8,6.8,68,30.31,10.0,NW,12.7,-,N/A,,Partly Cloudy,310,2013-03-19 17:55:00
12:15 PM,15.8,8.6,73,30.31,10.0,WNW,11.5,-,N/A,,Partly Cloudy,300,2013-03-19 18:15:00
12:35 PM,17.6,6.8,63,30.31,10.0,NW,16.1,-,N/A,,Clear,310,2013-03-19 18:35:00
12:55 PM,17.6,8.6,68,30.32,10.0,NW,15.0,-,N/A,,Clear,320,2013-03-19 18:55:00
1:35 PM,17.6,8.6,68,30.33,10.0,NW,10.4,-,N/A,,Partly Cloudy,310,2013-03-19 19:35:00
1:55 PM,17.6,8.6,68,30.33,10.0,NW,10.4,-,N/A,,Partly Cloudy,310,2013-03-19 19:55:00
2:15 PM,19.4,8.6,63,30.33,10.0,NW,12.7,17.3,N/A,,Clear,310,2013-03-19 20:15:00
2:35 PM,19.4,10.4,68,30.34,10.0,NW,10.4,-,N/A,,Clear,310,2013-03-19 20:35:00
2:55 PM,21.2,8.6,58,30.34,10.0,WNW,10.4,-,N/A,,Clear,300,2013-03-19 20:55:00
3:35 PM,21.2,8.6,58,30.34,10.0,NW,9.2,-,N/A,,Clear,310,2013-03-19 21:35:00
3:55 PM,21.2,8.6,58,30.34,10.0,NW,9.2,-,N/A,,Clear,310,2013-03-19 21:55:00
5:15 PM,21.2,8.6,58,30.35,10.0,NW,8.1,-,N/A,,Clear,320,2013-03-19 23:15:00
5:35 PM,21.2,5.0,50,30.35,10.0,WNW,5.8,-,N/A,,Clear,290,2013-03-19 23:35:00
6:15 PM,21.2,3.2,46,30.35,10.0,NW,6.9,-,N/A,,Clear,310,2013-03-20 00:15:00
6:35 PM,21.2,5.0,50,30.35,10.0,NW,5.8,-,N/A,,Clear,310,2013-03-20 00:35:00
6:55 PM,21.2,6.8,54,30.34,10.0,NNW,4.6,-,N/A,,Clear,330,2013-03-20 00:55:00
7:15 PM,19.4,5.0,54,30.35,10.0,NNW,4.6,-,N/A,,Clear,340,2013-03-20 01:15:00
7:35 PM,17.6,6.8,63,30.34,10.0,North,3.5,-,N/A,,Clear,350,2013-03-20 01:35:00
8:15 PM,15.8,5.0,62,30.34,10.0,Calm,Calm,-,N/A,,Clear,0,2013-03-20 02:15:00
8:35 PM,14.0,3.2,62,30.34,10.0,Calm,Calm,-,N/A,,Clear,0,2013-03-20 02:35:00
8:55 PM,12.2,5.0,73,30.34,10.0,Calm,Calm,-,N/A,,Clear,0,2013-03-20 02:55:00
9:15 PM,12.2,6.8,79,30.34,10.0,Calm,Calm,-,N/A,,Clear,0,2013-03-20 03:15:00
9:35 PM,10.4,6.8,85,30.34,10.0,Calm,Calm,-,N/A,,Clear,0,2013-03-20 03:35:00
9:55 PM,14.0,10.4,86,30.33,10.0,SE,3.5,-,N/A,,Clear,130,2013-03-20 03:55:00
10:15 PM,14.0,6.8,73,30.33,10.0,SSE,3.5,-,N/A,,Clear,150,2013-03-20 04:15:00
10:35 PM,12.2,3.2,67,30.33,10.0,Calm,Calm,-,N/A,,Clear,0,2013-03-20 04:35:00
10:55 PM,12.2,6.8,79,30.32,10.0,Calm,Calm,-,N/A,,Clear,0,2013-03-20 04:55:00
11:15 PM,12.2,5.0,73,30.32,10.0,South,3.5,-,N/A,,Clear,180,2013-03-20 05:15:00
11:35 PM,10.4,5.0,79,30.32,10.0,SSW,3.5,-,N/A,,Clear,200,2013-03-20 05:35:00
11:55 PM,10.4,5.0,79,30.32,10.0,SSW,3.5,-,N/A,,Clear,200,2013-03-20 05:55:00